Miscellaneous Local Product
Issued by NWS North Platte, NE

Home | Current Version | Previous Version | Text Only | Print | Product List | Glossary On
Versions: 1 2 3 4 5 6 7 8 9 10 11 12 13 14 15 16 17 18 19 20 21 22 23 24 25 26 27 28 29 30 31 32 33 34 35 36 37 38 39 40 41 42 43 44 45 46 47 48 49 50
000
AXUS43 KLBF 250510
MISLBF


WESTERN AND NORTH CENTRAL NEBRASKA HOURLY WEATHER ROUNDUP
NATIONAL WEATHER SERVICE NORTH PLATTE NE
1200 AM CDT WED MAY 25 2016

NOTE: "FAIR" INDICATES FEW OR NO CLOUDS BELOW 12,000 FEET WITH NO
SIGNIFICANT WEATHER AND/OR OBSTRUCTIONS TO VISIBILITY.

NOTE: STATIONS NOT REPORTING VARIABLES SUCH AS SKY/WEATHER OR
PRESSURE ARE PROVIDED BY RAWS AND APRS NETWORKS AND ARE NOT UNDER
NATIONAL WEATHER SERVICE QUALITY CONTROL.

...OBSERVATIONS IN AND NEAR THE EASTERN PANHANDLE OF NEBRASKA...

CITY           SKY/WX    TMP DP  RH WIND       PRES   REMARKS
PINE RIDGE     CLOUDY    53  47  79 E14       29.82F
CHADRON        CLOUDY    54  32  43 E13       29.80F
ALLIANCE       CLOUDY    51  49  92 NE15      29.83F
SIDNEY         CLOUDY    55  49  80 E9        29.84R
CRESCENT LAKE    N/A     54  49  85 NE12G21     N/A
BIG SPRINGS      N/A     60  54  80 E6          N/A
$$

...OBSERVATIONS IN NORTHERN NEBRASKA AND FAR SOUTHERN SOUTH DAKOTA...

CITY           SKY/WX    TMP DP  RH WIND       PRES   REMARKS
WINNER         FAIR      69  56  62 S9        29.77R
VALENTINE      RAIN      56  32  40 N24G33    29.84R
THEDFORD       TSTM      56  54  95 NW12      29.89S
AINSWORTH      CLOUDY    68  57  68 S8        29.80F
O`NEILL        MOCLDY    68  57  67 SE7       29.81F
ORD            CLOUDY    68  60  75 SE9       29.77F
BROKEN BOW     CLOUDY    66  59  78 SE6       29.80S
VALENTINE NWR    N/A     67  55  66 S6          N/A
BUTTE            N/A     65  57  76 E8          N/A
CHAMBERS         N/A     68  59  73 E6          N/A
EWING            N/A     67  60  79 SE5         N/A
$$

...OBSERVATIONS IN SOUTHWEST NEBRASKA AND FAR NORTHEAST COLORADO...

CITY           SKY/WX    TMP DP  RH WIND       PRES   REMARKS
WRAY           FAIR      61  55  82 NE6       29.81R
HOLYOKE        FAIR      55  54  94 CALM      29.81F
IMPERIAL       CLOUDY    55  52  89 N5        29.81R
OGALLALA       CLOUDY    57  53  86 E7        29.79R
NORTH PLATTE   LGT RAIN  59  53  80 MISG      29.81F
MCCOOK         CLOUDY    66  60  81 N13       29.83R
LEXINGTON      CLOUDY    69  60  75 W8        29.85R
PAXTON           N/A     57  52  84 NE5         N/A
STAPLETON        N/A     55  52  91 CALM        N/A
GOTHENBURG       N/A     68  58  70 E7          N/A
CALLAWAY         N/A     65  59  81 SE10        N/A
$$

...OBSERVATIONS IN CENTRAL LINCOLN COUNTY AREA...

CITY           SKY/WX    TMP DP  RH WIND       PRES   REMARKS
N.P. AIRPORT   LGT RAIN  59  53  80 MISG      29.81F
N.P. DOWNTOWN    N/A     56  55  97 NE12        N/A
N.P. SOUTHEAST   N/A     56  55  95 N6          N/A
N.P. HILLCREST   N/A     55  54  96 NE22G31     N/A
$$

...SOME OBSERVATIONS FROM AROUND THE REGION...

CITY           SKY/WX    TMP DP  RH WIND       PRES   REMARKS
DENVER         PTCLDY    54  47  77 SW6       29.88R
LARAMIE        CLOUDY    46  33  60 N13       29.99R
CHEYENNE       CLOUDY    51  41  68 W8        29.89S
SCOTTSBLUFF    PTCLDY    53  47  79 E14       29.83F
RAPID CITY     CLOUDY    51  48  89 S6        29.85R
BISMARCK       LGT RAIN  64  51  62 SE6       29.87R
PIERRE         RAIN      58  55  90 NW18      29.85R
SIOUX FALLS    PTCLDY    71  61  70 S10       29.86R
OMAHA          CLOUDY    72  63  73 SE10      29.87S
GRAND ISLAND   CLOUDY    70  61  73 SE15G23   29.79F
KANSAS CITY    CLOUDY    71  67  87 SE7       29.91R
WICHITA        TSTM      63  60  90 E7        29.91F
OKLAHOMA CITY  CLOUDY    76  72  87 S17G25    29.88R
DALLAS         MOCLDY    82  73  74 S17G30    29.92S
AMARILLO       CLEAR     66  36  32 S14       29.87R
DODGE CITY     CLOUDY    64  63  96 SE15      29.81S
HAYS           CLOUDY    55  52  88 SE20G25   29.82R
GOODLAND       CLEAR     57  54  89 E7        29.76S
$$




USA.gov is the U.S. government's official web portal to all federal, state and local government web resources and services.